This demonstration page uses our WeatherBlox Daily Observations layout. Learn more.

Left ArrowRight Arrow

38.88101, -77.10428

Hourly Observations for July 2, 2021

Temp ( °F °C ) Dew Point ( °F °C ) Humidity (%) Winds ( mph kmh ) Pressure ( in mb ) Visibility ( mi km ) Precip ( " mm )
12:52 am 00:52 Cloudy with Light Rain 72 22.2 69 20.6 91 91 S 8 13 29.82 1010 10 16 0.01 0.25
1:52 am 01:52 Cloudy with Light Rain 72 22.2 68 20 87 87 W 5 7 29.80 1009 10 16 0.02 0.51
2:52 am 02:52 Cloudy 72 22.2 68 20 87 87 SSW 3 6 29.80 1009 10 16 0.00 0.00
3:32 am 03:32 Partly Cloudy with Light Rain 72 22.2 68 20 87 87 SSW 5 7 29.80 1009 10 16 0.00 0.00
3:52 am 03:52 Cloudy 72 22.2 69 20.6 91 91 S 5 7 29.79 1009 10 16 0.00 0.00
4:52 am 04:52 Cloudy with Light Rain 72 22.2 69 20.6 91 91 SW 6 9 29.79 1009 10 16 0.00 0.00
5:52 am 05:52 Cloudy with Light Rain 71 21.7 68 20 90 90 SSW 3 6 29.78 1008 10 16 0.02 0.51
6:22 am 06:22 Cloudy with Light Rain 71 21.7 68 20 90 90 WSW 7 11 29.79 1009 9 14 0.02 0.51
6:52 am 06:52 Cloudy with Light Rain 71 21.7 68 20 90 90 SSW 6 9 29.78 1008 10 16 0.03 0.76
7:26 am 07:26 Cloudy with Light Rain 71 21.7 68 20 90 90 WSW 6 9 29.79 1009 10 16 0.01 0.25
7:41 am 07:41 Cloudy with Light Rain 71 21.7 68 20 90 90 SW 7 11 29.79 1009 10 16 0.01 0.25
7:52 am 07:52 Cloudy with Light Rain 71 21.7 68 20 90 90 SSW 6 9 29.78 1009 10 16 0.02 0.51
8:27 am 08:27 Cloudy 72 22.2 68 20 87 87 SW 5 7 29.79 1009 10 16 0.00 0.00
8:52 am 08:52 Cloudy with Light Rain 72 22.2 67 19.4 84 84 VRB 6 9 29.78 1008 10 16 0.00 0.00
9:52 am 09:52 Cloudy 73 22.8 67 19.4 81 81 WNW 8 13 29.78 1009 10 16 0.00 0.00
10:10 am 10:10 Cloudy 73 22.8 67 19.4 81 81 WNW 8 13 29.78 1008 10 16 N/A
10:52 am 10:52 Cloudy 73 22.8 66 18.9 79 79 NW 12 19 29.78 1009 10 16 N/A
11:52 am 11:52 Cloudy 75 23.9 66 18.9 74 74 WNW 9 15 29.79 1009 10 16 N/A
12:27 pm 12:27 Cloudy 75 23.9 65 18.3 71 71 NW 12 19 29.80 1009 10 16 N/A
12:52 pm 12:52 Cloudy 77 25 66 18.9 69 69 NNW 14 22 29.79 1009 10 16 N/A
1:52 pm 13:52 Cloudy 80 26.7 64 17.8 58 58 NW 13 20 29.78 1008 10 16 N/A
2:52 pm 14:52 Mostly Cloudy 80 26.7 61 16.1 52 52 NNW 15 24 29.77 1008 10 16 N/A
3:52 pm 15:52 Mostly Cloudy 81 27.2 60 15.6 49 49 WNW 8 13 29.77 1008 10 16 N/A
4:52 pm 16:52 Mostly Cloudy 81 27.2 57 13.9 44 44 NNW 17 28 29.75 1007 10 16 N/A
5:52 pm 17:52 Sunny 80 26.7 49 9.4 34 34 WNW 14 22 29.75 1008 10 16 N/A
6:52 pm 18:52 Partly Cloudy 80 26.7 49 9.4 34 34 NNW 15 24 29.76 1008 10 16 N/A
7:52 pm 19:52 Partly Cloudy 77 25 49 9.4 37 37 NW 16 26 29.78 1008 10 16 N/A
8:52 pm 20:52 Partly Cloudy 76 24.4 50 10 40 40 NW 12 19 29.79 1009 10 16 N/A
9:52 pm 21:52 Partly Cloudy 74 23.3 51 10.6 45 45 NW 13 20 29.80 1009 10 16 N/A
10:52 pm 22:52 Mostly Cloudy 73 22.8 50 10 44 44 WNW 10 17 29.81 1010 10 16 N/A
11:52 pm 23:52 Mostly Cloudy 71 21.7 51 10.6 49 49 NNW 8 13 29.82 1010 10 16 N/A

Powered by AerisWeather